{"data":{"norad_id":50502,"intl_designator":"2021-132AK","name":"ONEWEB-0432","alt_names":[],"object_type":"PAYLOAD","status":"ACTIVE","operator":null,"country":"UK","launch_date":"2021-12-27","launch_site_code":"TYMSC","launch_vehicle":null,"mission":null,"orbit_class":"UNKNOWN","rcs_meters":null,"size_class":null,"mass_kg":null,"dimensions":null,"purposes":["comms"],"wikipedia_slug":null,"has_3d_model":false,"image_url":null,"decayed_at":null,"tle_current":{"epoch":"2026-09-20T03:44:44.252736Z","epoch_age_seconds":55599,"freshness":"FRESH","line1":"1 50502U 21132AK  26263.15606774  .00000076  00000+0  15966-3 0  9998","line2":"2 50502  87.9167 316.5768 0001464  96.4617 263.6682 13.18686688234092","mean_motion":13.18686688,"eccentricity":0.0001464,"inclination_deg":87.9167,"raan_deg":316.5768,"arg_perigee_deg":96.4617,"mean_anomaly_deg":263.6682,"bstar":0.00015966,"rev_number":23409,"period_min":109.19955536853,"perigee_km":1188.6325573354,"apogee_km":1190.8484318658,"semimajor_km":7567.8774946006,"source":"CELESTRAK","updated_at":"2026-09-20T09:00:44.706808Z"}}}